Back to catalog

FENGYUN 1C DEB

AliveLEO
NORAD 32171·DEBRIS·🇨🇳 China

Launched May 10, 1999 from Taiyuan Satellite Launch Center

Loading…

Next Passes (next 24 hours)

TLE

StaleSource: Space-Track

Epoch: Sep 7, 2026, 04:34 UTC

1 32171U 99025CTR 26250.19054230  .00001673  00000-0  15037-2 0  9993
2 32171 102.8035 225.3464 0477096 143.5596 234.4970 13.44283103642210

Track FENGYUN 1C DEB in real time with AllMySat

Download on the App Store